Location: Newark
(42.8481°N, 0.4872°E)
Time: 08:05:42
(UTC+00:00)

SR - Pass Details

Date: 09 November 2020
Orbit: 579 x 876 km, 66.7° (Epoch: 29 November)

Event Time Altitude Azimuth Distance (km) Brightness Sun altitude
Rises 06:16:20 0° 340° (NNW) 3,067 ? -5.4°
Reaches altitude 10° 06:19:28 10° 2° (N) 2,209 ? -4.8°
Maximum altitude 06:22:39 16° 41° (NE) 1,862 ? -4.3°
Drops below altitude 10° 06:25:58 10° 80° (E) 2,329 ? -3.7°
Sets 06:29:23 0° 101° (E) 3,316 ? -3.1°
